Location: Naples
(26.1420°N, 81.7950°W)
Time: 13:19:55
(UTC-04:00)

Tiangong - Pass Details

Date: 15 May 2026
Orbit: 380 x 392 km, 41.5° (Epoch: 11 June)

Event Time Altitude Azimuth Distance (km) Brightness Sun altitude
Rises 05:56:12 0° 310° (NW) 2,261 1.5 -10.0°
Reaches altitude 10° 05:58:19 10° 316° (NW) 1,402 0.5 -9.5°
Maximum altitude 06:01:24 48° 32° (NNE) 508 -1.1 -8.9°
Drops below altitude 10° 06:04:33 - 109° (ESE) 1,431 1.5 -8.3°
Sets 06:06:32 0° 115° (ESE) 2,237 2.4 -7.9°
